Location: Avon School (historical)
(37.7514°N, 90.2201°W)
Time: 03:47:19
(UTC+00:00)

Explorer 7 - Pass Details

Date: 09 November 2024
Orbit: 456 x 598 km, 50.3° (Epoch: 03 December)

Event Time Altitude Azimuth Distance (km) Brightness Sun altitude
Exits shadow 11:55:45 11° 284° (WNW) 1,761 8.7 -8.3°
Maximum altitude 11:59:02 25° 339° (NNW) 1,159 8.1 -7.6°
Drops below altitude 10° 12:02:35 10° 35° (NE) 1,876 9.8 -7.0°
Sets 12:05:14 0° 49° (NE) 2,800 10.9 -6.5°
